Lid_Strength_Index
9 11 13 11 11 10 11 12 12 10 9 11 12 11 9 9 9 9 8 6 6 5 4 3 2 3 3 3 3 3 4 4 3 2 3 4 4 3 3 4 3 3 3 2
10 12 9 9 9 10 11 12 12 10 8 9 10 11 9 8 7 8 8 7 6 5 5 4 3 4 4 4 4 4 4 4 3 3 2 4 4 3 3 4 3 3 2 2
11 9 7 8 10 10 12 11 11 11 9 9 10 12 10 7 7 6 6 5 5 5 5 4 4 4 4 4 4 4 3 4 3 3 4 4 4 4 4 4 4 3 2 2
10 8 8 9 9 9 12 9 9 10 12 14 11 16 12 9 8 7 7 6 6 5 4 4 4 5 5 4 3 3 3 4 3 4 4 4 5 5 5 4 4 3 3 3
9 9 9 10 9 8 10 8 10 10 13 14 12 14 12 10 10 9 8 6 6 5 5 4 4 4 3 3 4 4 3 3 3 4 4 4 4 5 4 5 5 5 4 3
8 6 9 9 8 8 8 10 10 12 14 16 13 14 15 13 10 9 8 7 6 5 4 4 3 2 4 4 4 2 3 3 2 2 2 4 5 5 5 5 5 5 4 4
9 8 7 7 9 8 10 12 16 17 17 17 12 14 14 10 8 8 8 7 6 5 5 4 4 6 5 4 3 2 2 3 3 3 4 4 4 5 5 5 5 5 5 4
12 13 9 7 9 11 11 12 15 20 19 17 12 16 13 9 7 6 6 6 5 5 5 7 6 6 6 6 5 5 5 5 4 4 4 4 4 5 5 3 4 5 5 4
13 12 7 7 7 9 11 13 12 14 14 16 15 13 9 8 9 7 8 8 9 8 7 7 7 7 6 6 6 5 4 5 5 5 5 5 5 4 4 5 5 5 4 4
10 13 8 7 7 7 10 9 14 14 20 20 17 16 15 11 10 9 9 9 9 8 8 8 7 7 7 6 6 5 5 5 5 5 5 4 4 3 4 6 6 5 5 5
9 11 11 9 10 11 11 12 12 12 14 18 20 17 10 10 9 10 10 10 9 9 9 8 8 8 7 7 7 6 6 6 6 5 5 4 4 5 6 7 6 5 6 6
9 11 15 12 8 7 9 12 12 16 16 15 16 16 10 10 10 10 9 9 9 9 9 8 8 8 8 8 7 7 6 6 5 5 5 6 6 6 7 7 6 6 6 6
9 13 16 13 12 9 11 9 11 11 13 15 17 15 8 8 8 8 9 9 9 9 9 9 8 8 7 7 7 7 7 6 5 5 6 7 6 6 7 7 6 6 6 5
7 12 13 15 13 11 12 11 10 12 16 14 14 14 10 9 10 9 9 10 9 9 8 9 9 8 8 7 7 7 6 6 6 6 7 7 6 6 6 6 5 5 5 5
9 13 12 11 10 10 11 11 10 12 12 14 13 13 11 10 10 9 8 8 9 9 8 8 8 8 8 7 7 6 6 7 7 7 7 7 6 6 6 6 5 5 5 5
9 13 12 13 10 10 12 10 10 11 10 11 11 12 10 8 8 9 8 8 9 8 7 7 7 7 8 7 7 7 8 7 7 7 7 6 5 5 5 5 5 5 5 5
10 12 14 16 11 11 14 12 11 10 10 11 13 12 9 9 9 9 9 8 8 7 7 7 7 8 8 7 7 9 8 7 7 7 6 5 4 4 5 5 5 5 5 5
11 12 13 16 13 20 11 8 8 10 9 9 9 8 8 9 9 9 8 8 7 7 7 8 8 8 7 6 8 8 7 7 6 5 5 4 4 4 4 4 5 5 5 5
9 11 14 17 18 13 12 10 10 10 12 8 9 8 8 9 10 10 7 7 8 9 8 8 8 7 8 8 8 7 6 6 6 6 5 5 5 5 5 5 5 5 6 6
8 9 13 15 19 19 13 8 7 7 15 8 8 8 8 8 12 10 7 7 8 8 8 8 9 9 8 8 7 6 7 7 6 5 5 5 5 6 6 7 7 7 7 6
13 13 14 15 16 14 9 8 6 15 14 7 8 8 9 11 10 8 7 8 8 8 8 9 9 9 8 6 6 7 7 7 5 3 4 4 4 6 6 8 8 8 7 6
14 15 15 14 16 18 7 8 12 9 8 8 8 9 9 8 8 8 8 9 8 9 9 8 8 7 6 6 7 8 7 6 4 4 4 4 4 5 6 8 8 8 8 8
14 11 13 12 13 8 7 8 7 8 9 9 9 9 8 8 9 8 9 9 9 10 9 8 7 7 7 7 7 7 5 5 4 5 6 6 5 6 7 8 9 8 8 8
10 8 11 11 10 8 7 7 7 8 9 8 8 9 9 9 9 9 8 8 10 9 8 7 8 8 7 5 5 4 4 4 5 5 5 5 6 8 8 7 7 6 7 8
9 9 10 11 9 7 7 7 8 8 8 8 8 8 8 9 8 7 8 10 9 8 8 8 8 7 6 4 4 3 3 5 6 6 5 6 6 8 7 6 6 7 8 9
9 10 11 12 8 8 8 8 7 8 8 8 8 8 8 8 8 9 10 9 8 8 8 7 6 5 5 4 5 3 3 5 6 6 6 6 6 7 6 5 7 9 9 9